Vorticity
8 6 5 5 6 7 7 7 6 5 4 5 6 4 3 3 7 12 15 14 9 5 3 3 3 3 1 5 9 4 2 3 3 4 3 2 6 6 5 5 3 2 2
6 6 4 3 6 5 4 3 4 5 5 6 6 6 6 7 8 8 5 2 0 7 15 15 8 3 3 3 2 1 8 7 1 3 3 4 3 4 7 6 5 4 3
6 5 5 5 5 4 4 4 4 4 3 3 3 3 3 3 3 3 3 3 4 8 8 3 1 9 16 10 3 2 2 2 5 9 3 2 4 3 3 5 6 5 5
5 5 3 3 4 5 5 4 4 3 3 2 2 2 2 2 3 3 3 3 4 3 3 3 7 6 7 4 6 15 11 3 2 2 2 6 6 3 3 3 3 6 6
4 3 5 5 5 4 4 4 3 3 3 3 3 3 3 3 3 3 3 2 1 1 1 2 2 3 -1 6 5 6 6 8 14 8 3 3 2 3 6 4 3 2 2
4 5 5 5 5 4 4 3 2 3 3 3 3 3 3 3 4 3 3 4 4 4 4 3 2 1 -2 2 2 2 2 4 5 5 10 12 7 3 3 3 4 5 5
5 5 5 4 4 3 3 2 3 2 3 3 3 2 3 4 4 4 3 3 3 2 3 4 5 6 6 6 4 2 2 3 1 1 3 5 6 10 10 7 5 2 2
5 4 4 3 2 2 2 3 3 2 1 2 2 3 5 5 4 5 2 3 4 5 5 7 5 6 5 7 8 7 5 3 3 3 2 2 3 3 5 8 8 9 9
4 3 3 2 2 3 3 4 1 1 2 1 2 0 7 7 9 7 9 11 9 10 10 9 10 10 11 12 12 10 9 8 6 5 5 6 5 4 4 3 3 5 7
3 3 3 3 3 4 4 2 2 1 1 2 4 6 13 10 13 13 13 12 13 12 12 13 13 14 13 13 13 14 16 16 12 11 10 7 7 6 6 5 4 5 4
3 3 3 2 1 2 2 4 -0 6 9 14 15 15 13 12 11 11 10 10 9 8 8 8 7 6 6 5 4 4 5 6 9 10 12 17 17 14 12 10 8 7 4
2 2 2 3 3 0 0 3 -1 6 19 14 12 11 8 7 6 6 5 5 5 5 4 4 4 3 3 3 3 4 5 5 5 5 6 6 5 6 9 12 15 15 13
2 1 3 0 1 5 7 5 8 22 15 9 6 4 5 6 7 8 8 8 8 6 7 7 8 8 10 11 8 6 4 3 3 3 3 3 3 2 3 3 2 4 6
0 1 -2 -0 3 1 0 3 11 12 8 6 4 3 2 2 4 3 4 4 3 4 3 4 4 4 3 3 3 3 5 7 6 4 3 2 2 2 2 1 3 4 4
2 -1 -1 2 1 3 4 10 14 10 7 6 4 2 1 2 3 3 3 2 2 3 3 3 3 4 4 4 4 4 4 4 4 5 6 5 4 3 2 2 1 6 3
1 0 6 2 0 2 7 10 11 7 6 4 2 2 2 3 2 2 2 2 4 5 7 9 10 10 10 10 9 10 9 8 7 5 4 4 6 8 6 5 4 -1 -1
3 4 2 1 1 4 8 13 9 6 5 4 3 2 2 3 3 2 4 4 8 12 11 12 12 13 16 19 19 18 19 19 20 19 18 18 17 13 11 10 5 8 7
3 1 1 2 5 7 11 12 7 5 3 2 2 3 3 3 4 4 9 13 18 13 14 18 23 17 10 9 10 9 11 12 6 8 7 7 12 12 14 22 25 12 7
1 1 3 7 10 13 9 5 3 3 2 3 3 3 3 1 6 15 20 14 16 22 17 13 9 4 4 9 9 12 6 8 11 6 6 8 8 9 12 16 18 25 26
1 3 6 12 11 5 3 3 3 3 3 3 3 2 8 15 19 15 15 16 18 19 5 4 4 2 7 11 8 10 13 10 13 10 3 28 31 20 10 8 2 1 6
1 5 12 7 4 4 4 4 4 3 1 2 10 20 20 12 12 12 26 18 9 -0 -0 -0 6 10 14 12 12 8 8 8 16 14 13 22 28 38 17 4 -0 5 7
5 10 5 5 4 5 4 4 3 5 11 20 13 8 14 15 25 16 19 3 2 0 -4 11 15 14 12 8 11 9 6 9 13 13 11 14 16 22 22 14 8 4 9
6 6 6 5 4 7 11 12 14 17 13 10 12 18 33 13 14 10 4 0 1 15 24 15 10 8 11 7 12 12 10 7 5 9 10 14 13 16 16 14 14 14 15
5 5 5 11 15 10 13 13 11 11 10 23 33 11 4 16 6 4 8 13 13 9 9 11 9 7 8 7 6 7 9 10 11 7 6 6 13 13 13 15 15 13 11
4 8 18 6 14 2 17 40 31 23 23 -3 8 11 19 5 -1 7 8 7 7 7 6 5 8 5 6 3 8 11 7 6 9 12 7 3 10 7 7 10 12 14 13
15 12 6 9 4 9 1 12 11 3 4 8 12 6 6 3 -3 -1 4 4 4 4 4 4 7 9 9 5 5 5 8 8 8 8 11 8 4 6 12 10 10 9 9
Height
5887 5887 5887 5887 5888 5887 5887 5887 5887 5886 5887 5887 5886 5886 5885 5885 5884 5883 5883 5882 5881 5880 5879 5879 5878 5877 5877 5876 5875 5875 5874 5874 5873 5873 5871 5871 5870 5869 5869 5869 5869 5869 5869
5886 5886 5886 5887 5887 5887 5887 5887 5887 5887 5887 5887 5887 5886 5886 5885 5884 5883 5882 5881 5880 5879 5878 5877 5876 5875 5875 5874 5873 5873 5872 5872 5871 5871 5870 5870 5869 5868 5867 5867 5867 5867 5867
5885 5885 5886 5886 5887 5887 5887 5887 5887 5887 5887 5887 5886 5886 5885 5885 5884 5883 5882 5880 5879 5878 5877 5876 5874 5873 5872 5871 5870 5870 5869 5869 5868 5868 5867 5867 5867 5866 5865 5864 5864 5864 5864
5885 5885 5885 5886 5886 5886 5887 5887 5887 5887 5887 5887 5887 5886 5885 5884 5883 5882 5881 5879 5878 5877 5875 5874 5872 5871 5870 5869 5867 5867 5866 5866 5865 5865 5864 5864 5863 5863 5862 5862 5861 5861 5860
5884 5884 5884 5885 5886 5886 5886 5886 5887 5886 5886 5886 5885 5885 5884 5883 5881 5880 5879 5878 5876 5875 5873 5872 5870 5869 5868 5866 5865 5864 5863 5862 5861 5861 5860 5860 5860 5859 5859 5858 5858 5858 5857
5882 5883 5883 5884 5885 5885 5885 5885 5886 5885 5885 5884 5883 5882 5881 5880 5879 5877 5876 5874 5873 5871 5870 5868 5867 5865 5864 5863 5862 5861 5860 5859 5858 5857 5856 5855 5855 5855 5855 5854 5854 5853 5853
5881 5882 5883 5883 5884 5884 5885 5884 5884 5884 5883 5882 5881 5879 5878 5877 5875 5873 5871 5870 5868 5867 5865 5864 5862 5861 5860 5858 5858 5856 5855 5854 5854 5853 5851 5850 5850 5850 5849 5849 5849 5848 5848
5880 5881 5882 5882 5882 5883 5883 5883 5883 5882 5880 5879 5878 5876 5874 5872 5870 5868 5866 5864 5863 5861 5860 5858 5856 5855 5854 5853 5852 5851 5850 5849 5848 5848 5847 5846 5844 5844 5844 5843 5843 5842 5842
5879 5879 5880 5881 5881 5881 5881 5880 5880 5879 5877 5875 5874 5872 5870 5868 5865 5863 5861 5859 5857 5855 5853 5852 5850 5849 5848 5847 5846 5844 5843 5843 5841 5841 5841 5840 5839 5838 5838 5837 5836 5837 5836
5877 5877 5879 5879 5879 5879 5878 5877 5876 5875 5873 5872 5869 5867 5864 5862 5860 5858 5856 5854 5852 5850 5849 5847 5845 5844 5842 5841 5839 5838 5837 5836 5834 5834 5833 5832 5832 5831 5830 5831 5830 5830 5830
5875 5876 5877 5878 5877 5875 5875 5874 5873 5871 5869 5866 5863 5860 5859 5857 5855 5854 5852 5850 5848 5846 5845 5843 5841 5839 5838 5836 5834 5832 5831 5830 5829 5827 5826 5825 5825 5824 5823 5822 5823 5823 5822
5873 5874 5874 5874 5873 5872 5872 5870 5868 5865 5863 5860 5858 5856 5855 5853 5852 5850 5848 5846 5844 5842 5839 5837 5836 5834 5832 5831 5829 5827 5826 5824 5823 5822 5820 5819 5819 5819 5817 5815 5815 5815 5815
5870 5871 5870 5870 5869 5868 5867 5865 5862 5860 5857 5856 5854 5853 5851 5849 5848 5845 5843 5842 5839 5837 5834 5832 5829 5827 5826 5824 5823 5821 5819 5817 5816 5815 5813 5812 5812 5812 5810 5809 5808 5806 5806
5867 5867 5867 5866 5865 5863 5861 5859 5856 5855 5852 5851 5850 5848 5847 5845 5843 5840 5838 5835 5833 5831 5828 5826 5823 5821 5818 5815 5814 5812 5810 5809 5807 5805 5804 5803 5802 5802 5801 5801 5800 5799 5798
5863 5862 5862 5861 5860 5857 5855 5853 5851 5850 5848 5847 5845 5843 5841 5839 5836 5833 5831 5828 5825 5823 5820 5817 5815 5812 5809 5807 5804 5802 5800 5798 5796 5795 5793 5792 5791 5791 5790 5790 5790 5789 5788
5858 5858 5857 5856 5854 5851 5850 5848 5846 5845 5843 5841 5839 5837 5834 5832 5829 5826 5822 5819 5816 5813 5810 5807 5804 5802 5799 5796 5794 5791 5788 5786 5784 5782 5781 5780 5779 5777 5777 5776 5777 5777 5778
5853 5853 5852 5850 5848 5846 5845 5843 5841 5839 5837 5835 5833 5830 5827 5824 5821 5818 5814 5810 5807 5803 5799 5796 5793 5791 5789 5786 5783 5780 5777 5775 5772 5770 5768 5767 5766 5765 5765 5765 5764 5764 5765
5848 5847 5845 5844 5842 5841 5839 5838 5836 5834 5831 5828 5826 5822 5818 5815 5811 5808 5804 5800 5796 5793 5790 5787 5785 5782 5781 5778 5775 5772 5769 5766 5764 5761 5759 5756 5754 5753 5753 5752 5752 5752 5752
5842 5841 5840 5839 5837 5835 5833 5831 5829 5826 5823 5820 5816 5813 5810 5806 5802 5798 5795 5791 5788 5785 5782 5780 5778 5776 5773 5769 5766 5762 5760 5757 5754 5751 5748 5745 5742 5740 5741 5739 5738 5738 5739
5837 5835 5834 5833 5831 5828 5826 5824 5821 5818 5814 5811 5808 5804 5800 5796 5791 5788 5785 5782 5780 5778 5775 5774 5772 5769 5766 5762 5758 5754 5751 5748 5744 5741 5737 5730 5725 5724 5727 5729 5729 5729 5729
5831 5829 5828 5826 5823 5821 5818 5815 5812 5809 5806 5803 5798 5794 5791 5787 5784 5780 5778 5776 5774 5772 5770 5767 5764 5761 5758 5754 5750 5746 5743 5739 5735 5731 5726 5718 5713 5711 5714 5717 5718 5719 5718
5823 5822 5821 5818 5816 5813 5810 5806 5803 5799 5796 5792 5788 5784 5781 5778 5776 5773 5771 5770 5769 5766 5763 5760 5757 5753 5750 5747 5744 5739 5734 5732 5728 5723 5717 5711 5707 5705 5706 5708 5708 5708 5707
5816 5814 5812 5809 5807 5804 5800 5796 5792 5789 5786 5783 5779 5776 5773 5771 5770 5768 5767 5765 5763 5759 5756 5752 5750 5747 5743 5740 5737 5733 5728 5724 5720 5716 5712 5707 5703 5701 5701 5700 5699 5698 5696
5808 5806 5804 5801 5799 5796 5791 5786 5782 5780 5778 5775 5772 5769 5767 5766 5765 5763 5761 5758 5755 5752 5749 5747 5744 5740 5737 5733 5729 5725 5721 5717 5713 5708 5705 5702 5699 5696 5694 5692 5690 5688 5686
5802 5800 5798 5795 5792 5788 5783 5776 5773 5772 5770 5768 5766 5764 5762 5761 5759 5757 5754 5752 5749 5746 5743 5740 5736 5733 5730 5726 5722 5718 5714 5710 5706 5701 5695 5692 5690 5689 5686 5684 5682 5680 5677
5795 5793 5790 5788 5785 5782 5777 5772 5769 5767 5765 5762 5760 5758 5756 5754 5752 5750 5748 5745 5742 5739 5736 5732 5728 5725 5721 5718 5714 5711 5707 5703 5699 5696 5691 5685 5680 5678 5676 5673 5672 5669 5667